Time,TemperatureF,DewpointF,PressureIn,WindDirection,WindDirectionDegrees,WindSpeedMPH,WindSpeedGustMPH,Humidity,HourlyPrecipIn,Conditions,Clouds,dailyrainin,SolarRadiationWatts/m^2,SoftwareType,DateUTC
2013-01-21 00:00:00,27.3,7.7,30.35,NNE,21,17.0,18.0,43,0.00,,,0.00,0,Wunderground v.1.15,2013-01-21 06:00:00,
2013-01-21 00:06:00,27.3,8.2,30.35,North,10,16.0,20.0,44,0.00,,,0.00,0,Wunderground v.1.15,2013-01-21 06:06:00,
2013-01-21 00:12:00,27.2,8.6,30.36,North,2,14.0,19.0,45,0.00,,,0.00,0,Wunderground v.1.15,2013-01-21 06:12:00,
2013-01-21 00:18:00,27.0,8.5,30.36,NNE,27,17.0,17.0,45,0.00,,,0.00,0,Wunderground v.1.15,2013-01-21 06:18:00,
2013-01-21 00:24:00,26.7,8.2,30.36,NNE,27,17.0,18.0,45,0.00,,,0.00,0,Wunderground v.1.15,2013-01-21 06:24:00,
2013-01-21 00:30:00,26.5,8.5,30.36,North,7,14.0,16.0,46,0.00,,,0.00,0,Wunderground v.1.15,2013-01-21 06:30:00,
2013-01-21 00:36:00,26.2,7.2,30.37,NNE,12,15.0,21.0,44,0.00,,,0.00,0,Wunderground v.1.15,2013-01-21 06:36:00,
2013-01-21 00:42:00,26.1,6.6,30.37,NNE,16,17.0,21.0,43,0.00,,,0.00,0,Wunderground v.1.15,2013-01-21 06:42:00,
2013-01-21 00:48:00,25.8,6.3,30.37,NNE,16,16.0,16.0,43,0.00,,,0.00,0,Wunderground v.1.15,2013-01-21 06:48:00,
2013-01-21 00:54:00,25.5,6.6,30.37,North,2,14.0,17.0,44,0.00,,,0.00,0,Wunderground v.1.15,2013-01-21 06:54:00,
2013-01-21 01:00:00,25.4,7.0,30.37,North,2,15.0,16.0,45,0.00,,,0.00,0,Wunderground v.1.15,2013-01-21 07:00:00,
2013-01-21 01:06:00,25.1,7.2,30.37,North,9,15.0,17.0,46,0.00,,,0.00,0,Wunderground v.1.15,2013-01-21 07:06:00,
2013-01-21 01:12:00,24.9,6.5,30.37,North,8,14.0,15.0,45,0.00,,,0.00,0,Wunderground v.1.15,2013-01-21 07:12:00,
2013-01-21 01:18:00,24.8,6.9,30.38,North,10,13.0,17.0,46,0.00,,,0.00,0,Wunderground v.1.15,2013-01-21 07:18:00,
2013-01-21 01:24:00,24.7,7.8,30.38,NNE,13,13.0,17.0,48,0.00,,,0.00,0,Wunderground v.1.15,2013-01-21 07:24:00,
2013-01-21 01:30:00,24.5,8.0,30.38,North,2,13.0,13.0,49,0.00,,,0.00,0,Wunderground v.1.15,2013-01-21 07:30:00,
2013-01-21 01:38:00,24.2,8.7,30.38,NNE,13,12.0,14.0,51,0.00,,,0.00,0,Wunderground v.1.15,2013-01-21 07:38:00,
2013-01-21 01:44:00,24.1,9.0,30.37,NNE,16,13.0,14.0,52,0.00,,,0.00,0,Wunderground v.1.15,2013-01-21 07:44:00,
2013-01-21 01:50:00,23.9,9.2,30.37,NNE,17,11.0,11.0,53,0.00,,,0.00,0,Wunderground v.1.15,2013-01-21 07:50:00,
2013-01-21 01:56:00,23.8,9.1,30.37,NNE,29,10.0,11.0,53,0.00,,,0.00,0,Wunderground v.1.15,2013-01-21 07:56:00,
2013-01-21 02:02:00,23.7,9.5,30.37,NNE,19,10.0,21.0,54,0.00,,,0.00,0,Wunderground v.1.15,2013-01-21 08:02:00,
2013-01-21 02:08:00,23.7,9.5,30.37,North,10,11.0,21.0,54,0.00,,,0.00,0,Wunderground v.1.15,2013-01-21 08:08:00,
2013-01-21 02:14:00,23.6,9.4,30.37,NNE,20,12.0,21.0,54,0.00,,,0.00,0,Wunderground v.1.15,2013-01-21 08:14:00,
2013-01-21 02:20:00,23.5,9.3,30.37,NNE,19,11.0,21.0,54,0.00,,,0.00,0,Wunderground v.1.15,2013-01-21 08:20:00,
2013-01-21 02:28:00,23.4,9.6,30.38,NNE,19,10.0,21.0,55,0.00,,,0.00,0,Wunderground v.1.15,2013-01-21 08:28:00,
2013-01-21 02:34:00,23.3,9.9,30.38,NNE,23,10.0,21.0,56,0.00,,,0.00,0,Wunderground v.1.15,2013-01-21 08:34:00,
2013-01-21 02:40:00,23.1,9.7,30.38,NNE,31,8.0,21.0,56,0.00,,,0.00,0,Wunderground v.1.15,2013-01-21 08:40:00,
2013-01-21 02:46:00,22.7,9.3,30.38,NNE,31,6.0,21.0,56,0.00,,,0.00,0,Wunderground v.1.15,2013-01-21 08:46:00,
2013-01-21 02:52:00,22.7,9.3,30.39,North,11,8.0,21.0,56,0.00,,,0.00,0,Wunderground v.1.15,2013-01-21 08:52:00,
2013-01-21 02:58:00,22.7,9.3,30.39,NNE,16,8.0,21.0,56,0.00,,,0.00,0,Wunderground v.1.15,2013-01-21 08:58:00,
2013-01-21 03:04:00,22.6,9.2,30.39,NNE,22,7.0,21.0,56,0.00,,,0.00,0,Wunderground v.1.15,2013-01-21 09:04:00,
2013-01-21 03:10:00,22.4,9.1,30.39,NNE,21,7.0,21.0,56,0.00,,,0.00,0,Wunderground v.1.15,2013-01-21 09:10:00,
2013-01-21 03:16:00,22.3,9.4,30.39,NNE,20,6.0,21.0,57,0.00,,,0.00,0,Wunderground v.1.15,2013-01-21 09:16:00,
2013-01-21 03:22:00,22.2,9.3,30.39,NNE,19,7.0,21.0,57,0.00,,,0.00,0,Wunderground v.1.15,2013-01-21 09:22:00,
2013-01-21 03:28:00,22.3,9.4,30.40,North,10,7.0,21.0,57,0.00,,,0.00,0,Wunderground v.1.15,2013-01-21 09:28:00,
2013-01-21 03:34:00,22.2,9.3,30.39,NNE,16,7.0,21.0,57,0.00,,,0.00,0,Wunderground v.1.15,2013-01-21 09:34:00,
2013-01-21 03:42:00,21.7,8.8,30.39,NNE,14,5.0,21.0,57,0.00,,,0.00,0,Wunderground v.1.15,2013-01-21 09:42:00,
2013-01-21 03:48:00,21.4,8.9,30.39,North,352,6.0,21.0,58,0.00,,,0.00,0,Wunderground v.1.15,2013-01-21 09:48:00,
2013-01-21 03:54:00,21.2,9.5,30.39,North,352,7.0,21.0,60,0.00,,,0.00,0,Wunderground v.1.15,2013-01-21 09:54:00,
2013-01-21 04:00:00,21.1,9.7,30.39,North,357,8.0,21.0,61,0.00,,,0.00,0,Wunderground v.1.15,2013-01-21 10:00:00,
2013-01-21 04:06:00,21.0,10.0,30.38,North,2,8.0,21.0,62,0.00,,,0.00,0,Wunderground v.1.15,2013-01-21 10:06:00,
2013-01-21 04:12:00,21.0,10.0,30.38,North,6,8.0,21.0,62,0.00,,,0.00,0,Wunderground v.1.15,2013-01-21 10:12:00,
2013-01-21 04:18:00,20.8,10.2,30.38,North,6,7.0,7.0,63,0.00,,,0.00,0,Wunderground v.1.15,2013-01-21 10:18:00,
2013-01-21 04:24:00,20.5,9.9,30.37,North,10,6.0,21.0,63,0.00,,,0.00,0,Wunderground v.1.15,2013-01-21 10:24:00,
2013-01-21 04:30:00,20.2,10.0,30.37,NNE,16,6.0,21.0,64,0.00,,,0.00,0,Wunderground v.1.15,2013-01-21 10:30:00,
2013-01-21 04:36:00,20.4,10.5,30.36,NNE,15,8.0,21.0,65,0.00,,,0.00,0,Wunderground v.1.15,2013-01-21 10:36:00,
2013-01-21 04:42:00,20.5,10.2,30.37,North,7,9.0,21.0,64,0.00,,,0.00,0,Wunderground v.1.15,2013-01-21 10:42:00,
2013-01-21 04:48:00,20.5,10.2,30.38,North,8,8.0,21.0,64,0.00,,,0.00,0,Wunderground v.1.15,2013-01-21 10:48:00,
2013-01-21 04:54:00,20.4,10.1,30.37,North,8,7.0,21.0,64,0.00,,,0.00,0,Wunderground v.1.15,2013-01-21 10:54:00,
2013-01-21 05:00:00,20.2,10.0,30.37,North,10,6.0,21.0,64,0.00,,,0.00,0,Wunderground v.1.15,2013-01-21 11:00:00,
2013-01-21 05:08:00,19.7,9.5,30.37,NNE,16,6.0,21.0,64,0.00,,,0.00,0,Wunderground v.1.15,2013-01-21 11:08:00,
2013-01-21 05:14:00,19.7,9.5,30.37,NNE,16,6.0,21.0,64,0.00,,,0.00,0,Wunderground v.1.15,2013-01-21 11:14:00,
2013-01-21 05:20:00,19.7,9.5,30.37,NNE,16,4.0,21.0,64,0.00,,,0.00,0,Wunderground v.1.15,2013-01-21 11:20:00,
2013-01-21 05:28:00,19.6,9.4,30.37,NNE,16,4.0,21.0,64,0.00,,,0.00,0,Wunderground v.1.15,2013-01-21 11:28:00,
2013-01-21 05:34:00,19.4,9.2,30.37,NNE,16,5.0,21.0,64,0.00,,,0.00,0,Wunderground v.1.15,2013-01-21 11:34:00,
2013-01-21 05:40:00,19.2,9.0,30.37,NNE,16,6.0,21.0,64,0.00,,,0.00,0,Wunderground v.1.15,2013-01-21 11:40:00,
2013-01-21 05:46:00,19.0,9.2,30.37,NNE,16,6.0,21.0,65,0.00,,,0.00,0,Wunderground v.1.15,2013-01-21 11:46:00,
2013-01-21 05:52:00,18.9,9.1,30.37,NNE,16,4.0,21.0,65,0.00,,,0.00,0,Wunderground v.1.15,2013-01-21 11:52:00,
2013-01-21 05:58:00,18.7,8.9,30.37,NNE,16,3.0,21.0,65,0.00,,,0.00,0,Wunderground v.1.15,2013-01-21 11:58:00,
2013-01-21 06:04:00,18.6,9.1,30.37,NNE,16,3.0,21.0,66,0.00,,,0.00,0,Wunderground v.1.15,2013-01-21 12:04:00,
2013-01-21 06:10:00,18.4,8.9,30.37,NNE,16,2.0,21.0,66,0.00,,,0.00,0,Wunderground v.1.15,2013-01-21 12:10:00,
2013-01-21 06:16:00,18.4,9.3,30.37,NNE,16,2.0,21.0,67,0.00,,,0.00,0,Wunderground v.1.15,2013-01-21 12:16:00,
2013-01-21 06:22:00,18.4,9.3,30.37,NNE,16,2.0,21.0,67,0.00,,,0.00,0,Wunderground v.1.15,2013-01-21 12:22:00,
2013-01-21 06:28:00,18.4,8.9,30.37,NNE,16,2.0,21.0,66,0.00,,,0.00,0,Wunderground v.1.15,2013-01-21 12:28:00,
2013-01-21 06:34:00,18.3,9.2,30.37,NNE,16,2.0,21.0,67,0.00,,,0.00,0,Wunderground v.1.15,2013-01-21 12:34:00,
2013-01-21 06:40:00,18.3,9.2,30.38,NNE,16,2.0,21.0,67,0.00,,,0.00,0,Wunderground v.1.15,2013-01-21 12:40:00,
2013-01-21 06:46:00,18.2,9.1,30.38,NNE,16,0.0,21.0,67,0.00,,,0.00,0,Wunderground v.1.15,2013-01-21 12:46:00,
2013-01-21 06:52:00,18.2,9.1,30.38,NNE,16,1.0,21.0,67,0.00,,,0.00,0,Wunderground v.1.15,2013-01-21 12:52:00,
2013-01-21 06:58:00,18.1,9.3,30.37,NNE,16,2.0,21.0,68,0.00,,,0.00,0,Wunderground v.1.15,2013-01-21 12:58:00,
2013-01-21 07:04:00,18.0,9.2,30.38,NNE,16,2.0,21.0,68,0.00,,,0.00,0,Wunderground v.1.15,2013-01-21 13:04:00,
2013-01-21 07:10:00,18.1,9.3,30.38,NNE,16,2.0,21.0,68,0.00,,,0.00,0,Wunderground v.1.15,2013-01-21 13:10:00,
2013-01-21 07:16:00,18.1,9.3,30.38,NNE,16,1.0,21.0,68,0.00,,,0.00,0,Wunderground v.1.15,2013-01-21 13:16:00,
2013-01-21 07:22:00,18.1,9.3,30.39,NNE,16,1.0,21.0,68,0.00,,,0.00,0,Wunderground v.1.15,2013-01-21 13:22:00,
2013-01-21 07:28:00,18.1,9.3,30.39,NNE,16,2.0,21.0,68,0.00,,,0.00,0,Wunderground v.1.15,2013-01-21 13:28:00,
2013-01-21 07:34:00,18.1,9.6,30.39,NNE,16,2.0,21.0,69,0.00,,,0.00,0,Wunderground v.1.15,2013-01-21 13:34:00,
2013-01-21 07:40:00,18.0,9.5,30.39,NNE,16,2.0,21.0,69,0.00,,,0.00,5,Wunderground v.1.15,2013-01-21 13:40:00,
2013-01-21 07:46:00,17.9,9.4,30.39,NNE,16,1.0,21.0,69,0.00,,,0.00,7,Wunderground v.1.15,2013-01-21 13:46:00,
2013-01-21 07:52:00,17.8,9.3,30.39,NNE,16,1.0,21.0,69,0.00,,,0.00,11,Wunderground v.1.15,2013-01-21 13:52:00,
2013-01-21 07:58:00,17.6,9.2,30.38,NNE,16,1.0,21.0,69,0.00,,,0.00,12,Wunderground v.1.15,2013-01-21 13:58:00,
2013-01-21 08:04:00,17.5,9.4,30.38,NNE,16,1.0,21.0,70,0.00,,,0.00,16,Wunderground v.1.15,2013-01-21 14:04:00,
2013-01-21 08:10:00,17.4,9.3,30.39,NNE,16,2.0,21.0,70,0.00,,,0.00,19,Wunderground v.1.15,2013-01-21 14:10:00,
2013-01-21 08:16:00,17.4,9.6,30.39,NNE,16,1.0,21.0,71,0.00,,,0.00,23,Wunderground v.1.15,2013-01-21 14:16:00,
2013-01-21 08:22:00,17.5,10.0,30.39,NNE,16,1.0,21.0,72,0.00,,,0.00,30,Wunderground v.1.15,2013-01-21 14:22:00,
2013-01-21 08:28:00,17.7,10.5,30.39,NNE,16,1.0,21.0,73,0.00,,,0.00,47,Wunderground v.1.15,2013-01-21 14:28:00,
2013-01-21 08:34:00,18.2,11.3,30.39,NNE,16,2.0,21.0,74,0.00,,,0.00,60,Wunderground v.1.15,2013-01-21 14:34:00,
2013-01-21 08:40:00,18.9,11.7,30.39,NNE,16,3.0,21.0,73,0.00,,,0.00,83,Wunderground v.1.15,2013-01-21 14:40:00,
2013-01-21 08:46:00,19.6,12.0,30.39,NNE,16,2.0,21.0,72,0.00,,,0.00,135,Wunderground v.1.15,2013-01-21 14:46:00,
2013-01-21 08:52:00,20.4,12.5,30.40,NNE,16,2.0,21.0,71,0.00,,,0.00,155,Wunderground v.1.15,2013-01-21 14:52:00,
2013-01-21 08:58:00,21.0,12.4,30.40,NNE,16,1.0,21.0,69,0.00,,,0.00,174,Wunderground v.1.15,2013-01-21 14:58:00,
2013-01-21 09:04:00,21.7,12.4,30.39,North,8,2.0,21.0,67,0.00,,,0.00,192,Wunderground v.1.15,2013-01-21 15:04:00,
2013-01-21 09:10:00,22.2,12.6,30.39,North,352,3.0,21.0,66,0.00,,,0.00,207,Wunderground v.1.15,2013-01-21 15:10:00,
2013-01-21 09:16:00,22.9,12.9,30.39,North,352,3.0,21.0,65,0.00,,,0.00,227,Wunderground v.1.15,2013-01-21 15:16:00,
2013-01-21 09:22:00,23.4,13.4,30.40,North,352,3.0,21.0,65,0.00,,,0.00,243,Wunderground v.1.15,2013-01-21 15:22:00,
2013-01-21 09:28:00,24.0,12.9,30.40,North,352,2.0,21.0,62,0.00,,,0.00,257,Wunderground v.1.15,2013-01-21 15:28:00,
2013-01-21 09:34:00,24.4,12.9,30.41,North,352,1.0,21.0,61,0.00,,,0.00,272,Wunderground v.1.15,2013-01-21 15:34:00,
2013-01-21 09:40:00,24.9,12.6,30.41,North,352,1.0,21.0,59,0.00,,,0.00,264,Wunderground v.1.15,2013-01-21 15:40:00,
2013-01-21 09:46:00,25.3,12.6,30.41,North,352,0.0,21.0,58,0.00,,,0.00,278,Wunderground v.1.15,2013-01-21 15:46:00,
2013-01-21 09:52:00,25.8,12.6,30.41,North,352,0.0,21.0,57,0.00,,,0.00,320,Wunderground v.1.15,2013-01-21 15:52:00,
2013-01-21 09:58:00,25.9,12.7,30.40,North,352,2.0,2.0,57,0.00,,,0.00,323,Wunderground v.1.15,2013-01-21 15:58:00,
2013-01-21 10:04:00,26.5,12.9,30.40,North,352,2.0,21.0,56,0.00,,,0.00,345,Wunderground v.1.15,2013-01-21 16:04:00,
2013-01-21 10:10:00,26.9,13.3,30.40,North,352,3.0,21.0,56,0.00,,,0.00,359,Wunderground v.1.15,2013-01-21 16:10:00,
2013-01-21 10:16:00,27.6,13.1,30.41,North,352,3.0,21.0,54,0.00,,,0.00,374,Wunderground v.1.15,2013-01-21 16:16:00,
2013-01-21 10:22:00,28.2,12.8,30.41,North,352,3.0,21.0,52,0.00,,,0.00,387,Wunderground v.1.15,2013-01-21 16:22:00,
2013-01-21 10:28:00,29.0,13.1,30.41,North,352,1.0,21.0,51,0.00,,,0.00,401,Wunderground v.1.15,2013-01-21 16:28:00,
2013-01-21 10:34:00,29.6,12.8,30.41,North,352,1.0,21.0,49,0.00,,,0.00,413,Wunderground v.1.15,2013-01-21 16:34:00,
2013-01-21 10:40:00,30.1,12.3,30.41,North,352,1.0,21.0,47,0.00,,,0.00,422,Wunderground v.1.15,2013-01-21 16:40:00,
2013-01-21 10:46:00,30.4,12.5,30.40,North,352,2.0,21.0,47,0.00,,,0.00,436,Wunderground v.1.15,2013-01-21 16:46:00,
2013-01-21 10:52:00,30.9,12.5,30.40,North,352,2.0,21.0,46,0.00,,,0.00,445,Wunderground v.1.15,2013-01-21 16:52:00,
2013-01-21 10:58:00,31.4,13.0,30.40,North,352,2.0,21.0,46,0.00,,,0.00,457,Wunderground v.1.15,2013-01-21 16:58:00,
2013-01-21 11:04:00,31.8,13.3,30.40,North,2,2.0,21.0,46,0.00,,,0.00,468,Wunderground v.1.15,2013-01-21 17:04:00,
2013-01-21 11:10:00,32.2,12.7,30.41,North,2,3.0,21.0,44,0.00,,,0.00,480,Wunderground v.1.15,2013-01-21 17:10:00,
2013-01-21 11:16:00,32.5,12.5,30.41,North,2,2.0,21.0,43,0.00,,,0.00,489,Wunderground v.1.15,2013-01-21 17:16:00,
2013-01-21 11:22:00,32.8,12.2,30.40,NNE,15,2.0,21.0,42,0.00,,,0.00,499,Wunderground v.1.15,2013-01-21 17:22:00,
2013-01-21 11:28:00,32.8,12.7,30.40,NNE,20,2.0,21.0,43,0.00,,,0.00,512,Wunderground v.1.15,2013-01-21 17:28:00,
2013-01-21 11:34:00,33.0,12.9,30.40,NNE,21,2.0,21.0,43,0.00,,,0.00,522,Wunderground v.1.15,2013-01-21 17:34:00,
2013-01-21 11:40:00,33.2,12.6,30.40,NE,49,3.0,21.0,42,0.00,,,0.00,547,Wunderground v.1.15,2013-01-21 17:40:00,
2013-01-21 11:46:00,33.3,12.6,30.40,NE,56,4.0,21.0,42,0.00,,,0.00,478,Wunderground v.1.15,2013-01-21 17:46:00,
2013-01-21 11:52:00,33.3,12.6,30.40,ENE,57,2.0,21.0,42,0.00,,,0.00,538,Wunderground v.1.15,2013-01-21 17:52:00,
2013-01-21 11:58:00,33.6,12.9,30.40,ENE,57,2.0,2.0,42,0.00,,,0.00,540,Wunderground v.1.15,2013-01-21 17:58:00,
2013-01-21 12:04:00,33.6,12.4,30.38,ENE,57,1.0,21.0,41,0.00,,,0.00,571,Wunderground v.1.15,2013-01-21 18:04:00,
2013-01-21 12:10:00,33.8,12.6,30.38,ENE,57,2.0,21.0,41,0.00,,,0.00,559,Wunderground v.1.15,2013-01-21 18:10:00,
2013-01-21 12:16:00,33.9,12.6,30.37,ENE,57,1.0,21.0,41,0.00,,,0.00,568,Wunderground v.1.15,2013-01-21 18:16:00,
2013-01-21 12:22:00,34.1,13.4,30.37,ENE,68,2.0,21.0,42,0.00,,,0.00,457,Wunderground v.1.15,2013-01-21 18:22:00,
2013-01-21 12:28:00,34.4,13.1,30.37,ENE,75,2.0,21.0,41,0.00,,,0.00,559,Wunderground v.1.15,2013-01-21 18:28:00,
2013-01-21 12:34:00,34.5,12.6,30.37,ENE,75,1.0,21.0,40,0.00,,,0.00,557,Wunderground v.1.15,2013-01-21 18:34:00,
2013-01-21 12:40:00,34.7,12.8,30.37,ENE,75,2.0,21.0,40,0.00,,,0.00,563,Wunderground v.1.15,2013-01-21 18:40:00,
2013-01-21 12:46:00,34.9,13.0,30.36,ENE,69,3.0,21.0,40,0.00,,,0.00,559,Wunderground v.1.15,2013-01-21 18:46:00,
2013-01-21 12:52:00,35.0,13.1,30.35,ENE,69,3.0,21.0,40,0.00,,,0.00,563,Wunderground v.1.15,2013-01-21 18:52:00,
2013-01-21 12:58:00,35.0,13.1,30.34,ENE,69,2.0,2.0,40,0.00,,,0.00,571,Wunderground v.1.15,2013-01-21 18:58:00,
2013-01-21 13:04:00,35.6,13.6,30.34,ENE,69,1.0,21.0,40,0.00,,,0.00,564,Wunderground v.1.15,2013-01-21 19:04:00,
2013-01-21 13:10:00,36.2,13.6,30.34,ENE,69,1.0,21.0,39,0.00,,,0.00,555,Wunderground v.1.15,2013-01-21 19:10:00,
2013-01-21 13:16:00,36.4,13.2,30.34,ENE,69,2.0,21.0,38,0.00,,,0.00,550,Wunderground v.1.15,2013-01-21 19:16:00,
2013-01-21 13:22:00,36.4,13.2,30.34,ENE,69,2.0,21.0,38,0.00,,,0.00,545,Wunderground v.1.15,2013-01-21 19:22:00,
2013-01-21 13:28:00,36.3,13.1,30.34,ENE,64,4.0,4.0,38,0.00,,,0.00,540,Wunderground v.1.15,2013-01-21 19:28:00,
2013-01-21 13:34:00,36.6,13.4,30.33,NE,35,3.0,21.0,38,0.00,,,0.00,536,Wunderground v.1.15,2013-01-21 19:34:00,
2013-01-21 13:40:00,36.8,13.5,30.33,NE,38,4.0,21.0,38,0.00,,,0.00,531,Wunderground v.1.15,2013-01-21 19:40:00,
2013-01-21 13:46:00,36.8,13.5,30.33,NE,48,4.0,21.0,38,0.00,,,0.00,526,Wunderground v.1.15,2013-01-21 19:46:00,
2013-01-21 13:52:00,36.5,13.3,30.33,NE,45,4.0,21.0,38,0.00,,,0.00,519,Wunderground v.1.15,2013-01-21 19:52:00,
2013-01-21 13:58:00,36.4,13.2,30.32,NE,45,4.0,4.0,38,0.00,,,0.00,513,Wunderground v.1.15,2013-01-21 19:58:00,
2013-01-21 14:04:00,36.6,13.4,30.32,NE,45,2.0,21.0,38,0.00,,,0.00,504,Wunderground v.1.15,2013-01-21 20:04:00,
2013-01-21 14:10:00,36.6,13.4,30.32,ENE,58,3.0,21.0,38,0.00,,,0.00,104,Wunderground v.1.15,2013-01-21 20:10:00,
2013-01-21 14:16:00,36.3,13.1,30.32,ENE,58,3.0,21.0,38,0.00,,,0.00,46,Wunderground v.1.15,2013-01-21 20:16:00,
2013-01-21 14:22:00,36.1,12.9,30.32,ENE,58,3.0,21.0,38,0.00,,,0.00,44,Wunderground v.1.15,2013-01-21 20:22:00,
2013-01-21 14:28:00,35.8,13.2,30.32,ENE,58,2.0,2.0,39,0.00,,,0.00,44,Wunderground v.1.15,2013-01-21 20:28:00,
2013-01-21 14:34:00,35.7,13.1,30.32,ENE,58,1.0,21.0,39,0.00,,,0.00,42,Wunderground v.1.15,2013-01-21 20:34:00,
2013-01-21 14:40:00,35.8,13.2,30.32,ENE,74,3.0,21.0,39,0.00,,,0.00,42,Wunderground v.1.15,2013-01-21 20:40:00,
2013-01-21 14:46:00,35.8,13.2,30.31,ENE,74,2.0,21.0,39,0.00,,,0.00,40,Wunderground v.1.15,2013-01-21 20:46:00,
2013-01-21 14:52:00,35.7,13.1,30.31,ENE,74,2.0,21.0,39,0.00,,,0.00,40,Wunderground v.1.15,2013-01-21 20:52:00,
2013-01-21 14:58:00,35.5,13.5,30.31,ENE,74,1.0,1.0,40,0.00,,,0.00,40,Wunderground v.1.15,2013-01-21 20:58:00,
2013-01-21 15:04:00,35.5,13.0,30.30,ENE,73,2.0,21.0,39,0.00,,,0.00,40,Wunderground v.1.15,2013-01-21 21:04:00,
2013-01-21 15:10:00,35.4,12.9,30.30,ENE,74,2.0,21.0,39,0.00,,,0.00,54,Wunderground v.1.15,2013-01-21 21:10:00,
2013-01-21 15:16:00,35.3,13.3,30.30,ENE,74,1.0,21.0,40,0.00,,,0.00,142,Wunderground v.1.15,2013-01-21 21:16:00,
2013-01-21 15:22:00,35.4,13.4,30.29,ENE,74,1.0,21.0,40,0.00,,,0.00,40,Wunderground v.1.15,2013-01-21 21:22:00,
2013-01-21 15:28:00,35.5,13.5,30.29,ENE,74,1.0,21.0,40,0.00,,,0.00,69,Wunderground v.1.15,2013-01-21 21:28:00,
2013-01-21 15:34:00,35.7,13.7,30.29,ENE,74,1.0,21.0,40,0.00,,,0.00,44,Wunderground v.1.15,2013-01-21 21:34:00,
2013-01-21 15:40:00,35.9,13.9,30.28,East,91,1.0,3.0,40,0.00,,,0.00,49,Wunderground v.1.15,2013-01-21 21:40:00,
2013-01-21 15:46:00,36.4,14.9,30.28,ESE,105,3.0,21.0,41,0.00,,,0.00,39,Wunderground v.1.15,2013-01-21 21:46:00,
2013-01-21 15:52:00,36.8,14.7,30.28,SE,130,6.0,21.0,40,0.00,,,0.00,37,Wunderground v.1.15,2013-01-21 21:52:00,
2013-01-21 15:58:00,37.0,14.9,30.27,SE,141,4.0,21.0,40,0.00,,,0.00,49,Wunderground v.1.15,2013-01-21 21:58:00,
2013-01-21 16:04:00,37.2,14.5,30.27,SE,141,4.0,21.0,39,0.00,,,0.00,58,Wunderground v.1.15,2013-01-21 22:04:00,
2013-01-21 16:10:00,37.3,15.2,30.27,SE,141,2.0,21.0,40,0.00,,,0.00,197,Wunderground v.1.15,2013-01-21 22:10:00,
2013-01-21 16:16:00,37.4,14.7,30.26,SSE,151,3.0,21.0,39,0.00,,,0.00,95,Wunderground v.1.15,2013-01-21 22:16:00,
2013-01-21 16:22:00,37.5,14.8,30.26,SSE,151,4.0,21.0,39,0.00,,,0.00,33,Wunderground v.1.15,2013-01-21 22:22:00,
2013-01-21 16:28:00,37.5,14.8,30.27,SSE,151,4.0,4.0,39,0.00,,,0.00,32,Wunderground v.1.15,2013-01-21 22:28:00,
2013-01-21 16:34:00,37.3,14.0,30.26,SSE,151,4.0,21.0,38,0.00,,,0.00,30,Wunderground v.1.15,2013-01-21 22:34:00,
2013-01-21 16:40:00,37.2,13.9,30.26,SSE,151,3.0,21.0,38,0.00,,,0.00,30,Wunderground v.1.15,2013-01-21 22:40:00,
2013-01-21 16:46:00,37.1,15.0,30.26,SSE,151,4.0,21.0,40,0.00,,,0.00,28,Wunderground v.1.15,2013-01-21 22:46:00,
2013-01-21 16:52:00,36.9,14.2,30.25,SSE,150,4.0,21.0,39,0.00,,,0.00,26,Wunderground v.1.15,2013-01-21 22:52:00,
2013-01-21 16:58:00,36.7,14.6,30.25,SSE,150,5.0,21.0,40,0.00,,,0.00,25,Wunderground v.1.15,2013-01-21 22:58:00,
2013-01-21 17:04:00,36.5,14.4,30.25,SSE,150,5.0,21.0,40,0.00,,,0.00,21,Wunderground v.1.15,2013-01-21 23:04:00,
2013-01-21 17:10:00,36.3,14.3,30.25,SSE,150,4.0,21.0,40,0.00,,,0.00,19,Wunderground v.1.15,2013-01-21 23:10:00,
2013-01-21 17:16:00,36.1,14.1,30.25,SSE,150,3.0,21.0,40,0.00,,,0.00,18,Wunderground v.1.15,2013-01-21 23:16:00,
2013-01-21 17:22:00,35.9,13.9,30.25,SSE,150,2.0,21.0,40,0.00,,,0.00,14,Wunderground v.1.15,2013-01-21 23:22:00,
2013-01-21 17:28:00,35.8,14.4,30.25,SSE,150,2.0,21.0,41,0.00,,,0.00,12,Wunderground v.1.15,2013-01-21 23:28:00,
2013-01-21 17:34:00,35.5,14.6,30.25,SSE,150,2.0,21.0,42,0.00,,,0.00,9,Wunderground v.1.15,2013-01-21 23:34:00,
2013-01-21 17:40:00,35.3,14.5,30.26,SSE,150,2.0,21.0,42,0.00,,,0.00,5,Wunderground v.1.15,2013-01-21 23:40:00,
2013-01-21 17:46:00,35.0,14.2,30.26,SSE,150,0.0,21.0,42,0.00,,,0.00,0,Wunderground v.1.15,2013-01-21 23:46:00,
2013-01-21 17:52:00,34.6,13.8,30.26,SSE,150,0.0,21.0,42,0.00,,,0.00,0,Wunderground v.1.15,2013-01-21 23:52:00,
2013-01-21 17:58:00,34.1,13.4,30.27,SSE,150,0.0,21.0,42,0.00,,,0.00,0,Wunderground v.1.15,2013-01-21 23:58:00,
2013-01-21 18:04:00,33.5,13.4,30.27,SSE,150,0.0,21.0,43,0.00,,,0.00,0,Wunderground v.1.15,2013-01-22 00:04:00,
2013-01-21 18:10:00,32.8,12.7,30.26,SSE,150,1.0,21.0,43,0.00,,,0.00,0,Wunderground v.1.15,2013-01-22 00:10:00,
2013-01-21 18:16:00,32.1,13.1,30.26,SSE,150,2.0,21.0,45,0.00,,,0.00,0,Wunderground v.1.15,2013-01-22 00:16:00,
2013-01-21 18:22:00,31.6,13.2,30.26,SSE,150,2.0,21.0,46,0.00,,,0.00,0,Wunderground v.1.15,2013-01-22 00:22:00,
2013-01-21 18:28:00,31.1,13.7,30.27,SSE,150,1.0,21.0,48,0.00,,,0.00,0,Wunderground v.1.15,2013-01-22 00:28:00,
2013-01-21 18:34:00,30.7,13.3,30.27,SSE,150,1.0,21.0,48,0.00,,,0.00,0,Wunderground v.1.15,2013-01-22 00:34:00,
2013-01-21 18:40:00,30.4,13.0,30.27,SSE,150,1.0,21.0,48,0.00,,,0.00,0,Wunderground v.1.15,2013-01-22 00:40:00,
2013-01-21 18:46:00,30.1,12.7,30.27,SSE,150,0.0,21.0,48,0.00,,,0.00,0,Wunderground v.1.15,2013-01-22 00:46:00,
2013-01-21 18:52:00,29.8,12.9,30.27,SSE,150,0.0,21.0,49,0.00,,,0.00,0,Wunderground v.1.15,2013-01-22 00:52:00,
2013-01-21 18:58:00,29.4,13.0,30.27,SSE,150,2.0,21.0,50,0.00,,,0.00,0,Wunderground v.1.15,2013-01-22 00:58:00,
2013-01-21 19:04:00,29.1,12.8,30.27,SSE,150,2.0,21.0,50,0.00,,,0.00,0,Wunderground v.1.15,2013-01-22 01:04:00,
2013-01-21 19:10:00,28.9,13.0,30.27,SSE,150,3.0,21.0,51,0.00,,,0.00,0,Wunderground v.1.15,2013-01-22 01:10:00,
2013-01-21 19:16:00,28.5,13.1,30.27,SSE,150,3.0,21.0,52,0.00,,,0.00,0,Wunderground v.1.15,2013-01-22 01:16:00,
2013-01-21 19:22:00,28.1,13.6,30.27,SSE,150,4.0,21.0,54,0.00,,,0.00,0,Wunderground v.1.15,2013-01-22 01:22:00,
2013-01-21 19:28:00,28.0,13.5,30.27,SSE,150,4.0,4.0,54,0.00,,,0.00,0,Wunderground v.1.15,2013-01-22 01:28:00,
2013-01-21 19:34:00,28.0,13.9,30.27,SSE,150,4.0,21.0,55,0.00,,,0.00,0,Wunderground v.1.15,2013-01-22 01:34:00,
2013-01-21 19:40:00,28.0,13.9,30.27,SSE,150,4.0,21.0,55,0.00,,,0.00,0,Wunderground v.1.15,2013-01-22 01:40:00,
2013-01-21 19:46:00,28.0,13.9,30.27,SSE,150,2.0,21.0,55,0.00,,,0.00,0,Wunderground v.1.15,2013-01-22 01:46:00,
2013-01-21 19:52:00,27.9,13.8,30.27,SSE,150,2.0,21.0,55,0.00,,,0.00,0,Wunderground v.1.15,2013-01-22 01:52:00,
2013-01-21 19:58:00,27.9,13.8,30.27,SSE,150,3.0,3.0,55,0.00,,,0.00,0,Wunderground v.1.15,2013-01-22 01:58:00,
2013-01-21 20:04:00,27.7,13.6,30.27,SSE,150,1.0,21.0,55,0.00,,,0.00,0,Wunderground v.1.15,2013-01-22 02:04:00,
2013-01-21 20:10:00,27.3,12.8,30.27,SSE,150,2.0,21.0,54,0.00,,,0.00,0,Wunderground v.1.15,2013-01-22 02:10:00,
2013-01-21 20:16:00,27.0,12.5,30.27,SSE,150,2.0,21.0,54,0.00,,,0.00,0,Wunderground v.1.15,2013-01-22 02:16:00,
2013-01-21 20:22:00,26.6,12.6,30.27,SSE,150,2.0,21.0,55,0.00,,,0.00,0,Wunderground v.1.15,2013-01-22 02:22:00,
2013-01-21 20:28:00,26.4,13.2,30.27,SSE,150,3.0,21.0,57,0.00,,,0.00,0,Wunderground v.1.15,2013-01-22 02:28:00,
2013-01-21 20:34:00,26.3,13.1,30.27,SSE,150,3.0,21.0,57,0.00,,,0.00,0,Wunderground v.1.15,2013-01-22 02:34:00,
2013-01-21 20:40:00,26.2,13.4,30.26,SSE,150,2.0,21.0,58,0.00,,,0.00,0,Wunderground v.1.15,2013-01-22 02:40:00,
2013-01-21 20:46:00,26.2,13.8,30.26,SSE,150,3.0,21.0,59,0.00,,,0.00,0,Wunderground v.1.15,2013-01-22 02:46:00,
2013-01-21 20:52:00,26.3,13.9,30.26,SSE,150,3.0,21.0,59,0.00,,,0.00,0,Wunderground v.1.15,2013-01-22 02:52:00,
2013-01-21 20:58:00,26.3,14.3,30.26,SSE,150,3.0,21.0,60,0.00,,,0.00,0,Wunderground v.1.15,2013-01-22 02:58:00,
2013-01-21 21:04:00,26.3,13.9,30.26,SSE,150,3.0,21.0,59,0.00,,,0.00,0,Wunderground v.1.15,2013-01-22 03:04:00,
2013-01-21 21:10:00,26.3,13.5,30.27,SSE,150,4.0,21.0,58,0.00,,,0.00,0,Wunderground v.1.15,2013-01-22 03:10:00,
2013-01-21 21:16:00,26.2,13.4,30.27,SSE,150,4.0,21.0,58,0.00,,,0.00,0,Wunderground v.1.15,2013-01-22 03:16:00,
2013-01-21 21:22:00,26.1,13.3,30.27,SSE,150,5.0,21.0,58,0.00,,,0.00,0,Wunderground v.1.15,2013-01-22 03:22:00,
2013-01-21 21:28:00,26.1,13.3,30.27,SSE,150,4.0,21.0,58,0.00,,,0.00,0,Wunderground v.1.15,2013-01-22 03:28:00,
2013-01-21 21:36:00,26.1,13.3,30.28,SSE,150,4.0,21.0,58,0.00,,,0.00,0,Wunderground v.1.15,2013-01-22 03:36:00,
2013-01-21 21:42:00,26.1,13.7,30.28,SSE,150,4.0,21.0,59,0.00,,,0.00,0,Wunderground v.1.15,2013-01-22 03:42:00,
2013-01-21 21:48:00,26.0,13.6,30.27,SSE,150,4.0,21.0,59,0.00,,,0.00,0,Wunderground v.1.15,2013-01-22 03:48:00,
2013-01-21 21:54:00,26.0,13.6,30.28,SSE,150,5.0,21.0,59,0.00,,,0.00,0,Wunderground v.1.15,2013-01-22 03:54:00,
2013-01-21 22:00:00,25.9,13.5,30.27,SSE,150,4.0,21.0,59,0.00,,,0.00,0,Wunderground v.1.15,2013-01-22 04:00:00,
2013-01-21 22:06:00,25.8,13.4,30.27,SSE,150,4.0,21.0,59,0.00,,,0.00,0,Wunderground v.1.15,2013-01-22 04:06:00,
2013-01-21 22:12:00,25.8,13.4,30.27,SSE,150,4.0,21.0,59,0.00,,,0.00,0,Wunderground v.1.15,2013-01-22 04:12:00,
2013-01-21 22:18:00,25.8,13.4,30.27,SSE,150,4.0,21.0,59,0.00,,,0.00,0,Wunderground v.1.15,2013-01-22 04:18:00,
2013-01-21 22:24:00,25.8,13.4,30.27,SSE,150,5.0,21.0,59,0.00,,,0.00,0,Wunderground v.1.15,2013-01-22 04:24:00,
2013-01-21 22:30:00,25.7,13.3,30.28,SSE,150,5.0,21.0,59,0.00,,,0.00,0,Wunderground v.1.15,2013-01-22 04:30:00,
2013-01-21 22:36:00,25.5,13.5,30.28,SSE,150,5.0,21.0,60,0.00,,,0.00,0,Wunderground v.1.15,2013-01-22 04:36:00,
2013-01-21 22:42:00,25.5,13.9,30.28,SSE,150,5.0,21.0,61,0.00,,,0.00,0,Wunderground v.1.15,2013-01-22 04:42:00,
2013-01-21 22:48:00,25.4,13.8,30.28,SE,144,6.0,21.0,61,0.00,,,0.00,0,Wunderground v.1.15,2013-01-22 04:48:00,
2013-01-21 22:54:00,25.4,14.2,30.29,SE,133,6.0,21.0,62,0.00,,,0.00,0,Wunderground v.1.15,2013-01-22 04:54:00,
2013-01-21 23:02:00,25.6,14.7,30.29,SE,125,6.0,21.0,63,0.00,,,0.00,0,Wunderground v.1.15,2013-01-22 05:02:00,
2013-01-21 23:06:00,25.5,14.6,30.29,SE,124,6.0,21.0,63,0.00,,,0.00,0,Wunderground v.1.15,2013-01-22 05:06:00,
2013-01-21 23:08:00,25.5,14.6,30.29,SE,124,6.0,6.0,63,0.00,,,0.00,0,Wunderground v.1.15,2013-01-22 05:08:00,
2013-01-21 23:10:00,25.5,14.6,30.29,SE,124,5.0,21.0,63,0.00,,,0.00,0,Wunderground v.1.15,2013-01-22 05:10:00,
2013-01-21 23:16:00,25.4,14.5,30.29,SE,124,5.0,21.0,63,0.00,,,0.00,0,Wunderground v.1.15,2013-01-22 05:16:00,
2013-01-21 23:24:00,25.1,14.6,30.28,SE,124,6.0,21.0,64,0.00,,,0.00,0,Wunderground v.1.15,2013-01-22 05:24:00,
2013-01-21 23:30:00,24.8,14.3,30.28,ESE,123,5.0,21.0,64,0.00,,,0.00,0,Wunderground v.1.15,2013-01-22 05:30:00,
2013-01-21 23:36:00,24.6,14.1,30.28,ESE,123,5.0,21.0,64,0.00,,,0.00,0,Wunderground v.1.15,2013-01-22 05:36:00,
2013-01-21 23:42:00,24.4,14.3,30.27,ESE,123,6.0,21.0,65,0.00,,,0.00,0,Wunderground v.1.15,2013-01-22 05:42:00,
2013-01-21 23:48:00,24.1,14.0,30.27,ESE,121,7.0,21.0,65,0.00,,,0.00,0,Wunderground v.1.15,2013-01-22 05:48:00,
2013-01-21 23:54:00,24.1,14.0,30.27,ESE,122,9.0,21.0,65,0.00,,,0.00,0,Wunderground v.1.15,2013-01-22 05:54:00,